Kremmling, CO

8:31 PM MDT on June 24, 2017 (GMT -0600)
Kremmling

Weather History for K20V - August, 2013

Change the Weather History Date:

Sunday, August 18, 2013

  Actual Average Record
Temperature  
Mean Temperature 62 °F -  
Max Temperature 86 °F - 89 °F (2010)
Min Temperature 39 °F - 35 °F (2008)
Degree Days  
Heating Degree Days 2    
Month to date heating degree days  
Cooling Degree Days 0    
Month to date cooling degree days  
Growing Degree Days 12 (Base 50)    
Moisture  
Dew Point 35 °F    
Average Humidity 43    
Maximum Humidity 81    
Minimum Humidity 11    
Precipitation  
Precipitation 0.00 in - 0.79 in (2003)
Sea Level Pressure  
Sea Level Pressure 30.37 in    
Wind  
Wind Speed 3 mph (SW)    
Max Wind Speed 18 mph    
Max Gust Speed 28 mph    
Visibility 10 miles    
Events      
T = Trace of Precipitation, MM = Missing Value Source: NWS Daily Summary

Daily Weather History Graph

Daily Weather History Graph

Search for Another Location

Airport or City:

Trip Planner

Search our weather history database for the weather conditions in past years. The results will help you decide how hot, cold, wet, or windy it might be!

Date:

Astronomy

Aug. 18, 2013 Rise Set
Actual Time 6:20 AM MDT 7:57 PM MDT
Civil Twilight 5:51 AM MDT 8:26 PM MDT
Nautical Twilight 5:16 AM MDT 9:00 PM MDT
Astronomical Twilight 4:39 AM MDT 9:37 PM MDT
Moon 6:05 PM MDT (8/18) 3:32 AM MDT (8/18)
Length of Visible Light 14h 34m
Length of Day
13h 37m
Waxing Gibbous, 92% of the Moon is Illuminated
Aug 18
Waxing Gibbous
Aug 20
Full
Aug 28
Last Quarter
Sep 5
New
Sep 12
First Quarter

Hourly Weather History & Observations

Time (MDT) Temp. Dew Point Humidity Pressure Visibility Wind Dir Wind Speed Gust Speed Precip Events Conditions
12:16 AM 53.6 °F 33.8 °F 47% 30.35 in 10.0 mi SW 3.5 mph - N/A   Clear
12:36 AM 53.6 °F 35.6 °F 51% 30.35 in 10.0 mi Calm Calm - N/A   Clear
12:56 AM 51.8 °F 33.8 °F 50% 30.36 in 10.0 mi Calm Calm - N/A   Clear
1:16 AM 51.8 °F 33.8 °F 50% 30.36 in 10.0 mi Calm Calm - N/A   Clear
1:36 AM 50.0 °F 33.8 °F 54% 30.36 in 10.0 mi Calm Calm - N/A   Clear
1:56 AM 50.0 °F 33.8 °F 54% 30.37 in 10.0 mi Calm Calm - N/A   Clear
2:15 AM 48.2 °F 35.6 °F 62% 30.37 in 10.0 mi West 3.5 mph - N/A   Clear
2:35 AM 46.4 °F 35.6 °F 66% 30.37 in 10.0 mi Calm Calm - N/A   Clear
2:56 AM 46.4 °F 35.6 °F 66% 30.36 in 10.0 mi Calm Calm - N/A   Clear
3:16 AM 46.4 °F 33.8 °F 62% 30.37 in 10.0 mi Calm Calm - N/A   Clear
3:36 AM 46.4 °F 35.6 °F 66% 30.37 in 10.0 mi Calm Calm - N/A   Clear
3:56 AM 42.8 °F 35.6 °F 76% 30.38 in 10.0 mi Calm Calm - N/A   Clear
4:16 AM 44.6 °F 33.8 °F 66% 30.38 in 10.0 mi Calm Calm - N/A   Clear
4:36 AM 41.0 °F 32.0 °F 70% 30.38 in 10.0 mi Calm Calm - N/A   Clear
4:56 AM 42.8 °F 32.0 °F 66% 30.39 in 10.0 mi Calm Calm - N/A   Clear
5:16 AM 41.0 °F 33.8 °F 76% 30.39 in 10.0 mi Calm Calm - N/A   Clear
5:36 AM 41.0 °F 35.6 °F 81% 30.40 in 10.0 mi Calm Calm - N/A   Clear
5:56 AM 41.0 °F 32.0 °F 70% 30.40 in 10.0 mi Calm Calm - N/A   Clear
6:16 AM 41.0 °F 33.8 °F 76% 30.41 in 10.0 mi Calm Calm - N/A   Clear
6:35 AM 39.2 °F 32.0 °F 75% 30.41 in 10.0 mi Calm Calm - N/A   Clear
6:56 AM 41.0 °F 32.0 °F 70% 30.42 in 10.0 mi Calm Calm - N/A   Clear
7:16 AM 42.8 °F 33.8 °F 70% 30.43 in 10.0 mi Calm Calm - N/A   Clear
7:36 AM 46.4 °F 35.6 °F 66% 30.43 in 10.0 mi Calm Calm - N/A   Clear
7:56 AM 50.0 °F 33.8 °F 54% 30.43 in 10.0 mi Calm Calm - N/A   Clear
8:16 AM 50.0 °F 33.8 °F 54% 30.44 in 10.0 mi Calm Calm - N/A   Clear
8:36 AM 53.6 °F 32.0 °F 44% 30.43 in 10.0 mi Calm Calm - N/A   Clear
8:56 AM 55.4 °F 32.0 °F 41% 30.43 in 10.0 mi Calm Calm - N/A   Clear
9:16 AM 59.0 °F 33.8 °F 39% 30.42 in 10.0 mi Calm Calm - N/A   Clear
9:36 AM 60.8 °F 32.0 °F 34% 30.41 in 10.0 mi Calm Calm - N/A   Clear
9:56 AM 60.8 °F 32.0 °F 34% 30.41 in 10.0 mi Calm Calm - N/A   Scattered Clouds
10:16 AM 62.6 °F 32.0 °F 32% 30.41 in 10.0 mi Calm Calm - N/A   Mostly Cloudy
10:36 AM 69.8 °F 33.8 °F 27% 30.41 in 10.0 mi NW 3.5 mph - N/A   Scattered Clouds
10:55 AM 69.8 °F 32.0 °F 25% 30.41 in 10.0 mi Calm Calm - N/A   Clear
11:15 AM 71.6 °F 30.2 °F 22% 30.40 in 10.0 mi Calm Calm - N/A   Clear
11:36 AM 73.4 °F 32.0 °F 22% 30.38 in 10.0 mi North 3.5 mph - N/A   Clear
11:56 AM 77.0 °F 32.0 °F 19% 30.37 in 10.0 mi WNW 3.5 mph - N/A   Clear
12:16 PM 78.8 °F 32.0 °F 18% 30.36 in 10.0 mi Calm Calm - N/A   Clear
12:36 PM 80.6 °F 30.2 °F 16% 30.34 in 10.0 mi Calm Calm - N/A   Clear
12:56 PM 82.4 °F 28.4 °F 14% 30.33 in 10.0 mi North 4.6 mph - N/A   Clear
1:16 PM 82.4 °F 26.6 °F 13% 30.32 in 10.0 mi NNW 3.5 mph - N/A   Clear
1:36 PM 80.6 °F 28.4 °F 15% 30.32 in 10.0 mi North 6.9 mph - N/A   Clear
1:56 PM 78.8 °F 32.0 °F 18% 30.33 in 10.0 mi WNW 5.8 mph - N/A   Scattered Clouds
2:16 PM 80.6 °F 32.0 °F 17% 30.33 in 10.0 mi NW 10.4 mph - N/A   Scattered Clouds
2:36 PM 82.4 °F 28.4 °F 14% 30.32 in 10.0 mi NNW 8.1 mph - N/A   Clear
2:56 PM 86.0 °F 28.4 °F 12% 30.31 in 10.0 mi WNW 4.6 mph - N/A   Clear
3:16 PM 82.4 °F 28.4 °F 14% 30.31 in 10.0 mi North 6.9 mph - N/A   Clear
3:36 PM 84.2 °F 24.8 °F 11% 30.30 in 10.0 mi SW 9.2 mph 21.9 mph N/A   Scattered Clouds
3:56 PM 80.6 °F 30.2 °F 16% 30.31 in 10.0 mi NW 10.4 mph 24.2 mph N/A   Mostly Cloudy
4:16 PM 78.8 °F 32.0 °F 18% 30.32 in 10.0 mi West 10.4 mph - N/A   Scattered Clouds
4:36 PM 78.8 °F 30.2 °F 17% 30.31 in 10.0 mi West 9.2 mph - N/A   Clear
4:56 PM 77.0 °F 32.0 °F 19% 30.31 in 10.0 mi WSW 9.2 mph - N/A   Clear
5:16 PM 73.4 °F 33.8 °F 23% 30.32 in 10.0 mi SSW 17.3 mph 23.0 mph N/A   Mostly Cloudy
5:35 PM 73.4 °F 39.2 °F 29% 30.32 in 10.0 mi South 17.3 mph 27.6 mph N/A   Mostly Cloudy
5:56 PM 71.6 °F 39.2 °F 31% 30.32 in 10.0 mi SSW 18.4 mph 24.2 mph N/A   Mostly Cloudy
6:16 PM 69.8 °F 39.2 °F 33% 30.32 in 10.0 mi SSW 18.4 mph 24.2 mph N/A   Scattered Clouds
6:35 PM 69.8 °F 42.8 °F 38% 30.34 in 10.0 mi South 11.5 mph - N/A   Clear
6:56 PM 69.8 °F 42.8 °F 38% 30.34 in 10.0 mi SSW 8.1 mph - N/A   Scattered Clouds
7:16 PM 69.8 °F 42.8 °F 38% 30.35 in 10.0 mi SSW 8.1 mph - N/A   Mostly Cloudy
7:36 PM 69.8 °F 42.8 °F 38% 30.36 in 10.0 mi SSW 10.4 mph - N/A   Scattered Clouds
7:56 PM 66.2 °F 41.0 °F 40% 30.36 in 10.0 mi South 6.9 mph - N/A   Clear
8:16 PM 62.6 °F 41.0 °F 45% 30.37 in 10.0 mi South 5.8 mph - N/A   Clear
8:35 PM 62.6 °F 41.0 °F 45% 30.37 in 10.0 mi South 8.1 mph - N/A   Clear
8:56 PM 60.8 °F 41.0 °F 48% 30.37 in 10.0 mi South 8.1 mph - N/A   Clear
9:16 PM 60.8 °F 42.8 °F 52% 30.39 in 10.0 mi SSW 6.9 mph - N/A   Clear
9:36 PM 59.0 °F 42.8 °F 55% 30.40 in 10.0 mi SSW 6.9 mph - N/A   Clear
9:55 PM 59.0 °F 42.8 °F 55% 30.40 in 10.0 mi SSW 5.8 mph - N/A   Clear
10:15 PM 59.0 °F 42.8 °F 55% 30.41 in 10.0 mi Calm Calm - N/A   Clear
10:36 PM 55.4 °F 41.0 °F 58% 30.41 in 10.0 mi South 4.6 mph - N/A   Clear
10:56 PM 55.4 °F 42.8 °F 63% 30.41 in 10.0 mi SW 3.5 mph - N/A   Scattered Clouds
11:16 PM 55.4 °F 41.0 °F 58% 30.41 in 10.0 mi East 5.8 mph - N/A   Scattered Clouds
11:36 PM 59.0 °F 42.8 °F 55% 30.42 in 10.0 mi South 3.5 mph - N/A   Clear
11:56 PM 60.8 °F 42.8 °F 52% 30.40 in 10.0 mi SE 10.4 mph - N/A   Clear